Temp
64 63 63 64 64 63 63 63 62 62 63 62 63 63 63 62 62 62 63 63 64 64 64 64 65 64 59 51 51 63 66 64 61 59 55 53 50 48 46 48 48 47 50 53 54 55 56
63 63 63 63 63 63 63 63 62 62 62 62 62 62 61 61 62 62 62 63 63 64 63 64 64 64 55 45 62 63 61 60 58 56 54 55 51 52 48 47 47 50 51 52 53 55 55
63 63 63 63 62 63 63 63 62 62 63 62 62 61 61 61 61 61 62 62 63 63 63 63 64 60 53 51 61 60 61 57 57 56 52 55 54 50 50 46 51 50 46 50 51 53 54
62 62 62 63 63 62 62 62 62 62 62 62 62 61 60 60 60 60 61 61 61 61 62 63 64 56 48 60 60 60 61 59 58 57 56 57 57 53 51 51 49 45 46 40 49 52 54
62 63 62 62 62 62 62 62 62 62 62 62 61 60 60 60 60 60 60 61 61 62 63 63 55 52 48 62 56 59 60 55 56 56 57 61 56 50 50 45 42 44 35 38 44 51 53
61 61 61 62 62 62 62 62 61 61 61 61 60 58 59 59 59 59 60 61 61 62 60 60 59 48 53 51 55 57 60 58 54 53 52 51 47 42 43 42 33 34 37 38 39 47 49
61 61 61 61 61 61 61 61 61 61 61 60 59 58 59 59 59 59 55 54 53 50 52 49 50 50 52 54 57 53 57 55 56 53 43 46 40 35 39 42 44 43 39 38 43 48 47
60 60 61 61 61 61 61 61 60 60 60 60 59 58 58 59 59 59 52 50 47 49 45 51 52 52 55 55 49 51 57 49 48 41 45 42 36 44 47 44 44 42 37 38 44 48 48
60 60 60 60 60 61 60 60 60 60 60 59 59 57 58 58 59 53 48 47 52 50 43 48 52 51 52 54 49 49 51 49 45 41 41 38 42 48 46 44 42 40 38 39 41 45 46
60 60 60 60 60 60 60 60 60 60 59 58 58 58 58 58 54 48 47 51 51 50 33 42 47 51 52 52 47 54 53 50 45 40 41 41 46 45 43 42 44 38 44 44 44 40 35
60 60 60 60 60 60 59 59 59 59 58 58 58 58 57 57 49 48 49 51 50 49 20 44 48 57 53 47 48 49 52 49 42 42 42 39 41 41 40 40 44 42 44 43 43 38 36
61 61 60 60 60 59 59 59 59 59 58 58 57 57 57 52 49 48 50 48 49 31 21 36 46 44 45 47 48 49 48 50 48 42 41 40 45 44 44 46 46 47 43 44 40 38 30
61 60 61 60 60 59 59 59 59 59 58 57 57 56 54 53 49 50 49 47 31 23 40 39 38 42 40 41 44 43 41 38 36 32 33 38 40 43 45 42 44 43 39 30 29 28 30
60 60 60 60 60 59 59 59 59 58 58 57 56 55 53 52 49 49 47 41 26 35 36 41 39 40 37 40 39 41 38 35 38 36 32 29 29 40 43 40 39 40 40 31 27 26 29
60 60 59 59 59 59 59 59 59 58 57 57 55 47 47 48 50 48 45 28 32 36 38 38 39 34 35 38 37 38 34 35 36 36 32 32 33 41 42 43 42 39 35 40 30 28 28
59 59 59 59 60 59 59 59 58 58 57 57 44 45 46 49 48 47 39 37 37 40 40 38 33 34 30 34 34 34 32 37 38 39 39 35 32 39 42 44 43 40 42 34 31 26 25
58 58 58 59 59 59 58 58 58 58 57 55 45 45 48 48 48 43 33 35 39 43 42 39 34 33 33 31 31 31 33 38 39 39 39 36 34 35 40 38 37 38 35 35 35 33 29
57 57 57 58 57 58 58 58 58 58 56 49 41 40 48 48 39 32 35 39 45 41 41 40 38 37 34 34 32 32 33 36 41 39 35 36 35 28 34 40 40 38 37 37 31 31 30
57 57 56 57 56 56 57 58 57 57 55 48 38 40 48 48 38 36 37 41 43 42 41 40 39 40 38 34 32 34 35 41 41 38 35 37 33 26 33 35 38 35 38 36 35 33 30
56 56 56 56 56 56 55 56 57 57 56 46 39 37 43 43 39 38 37 39 39 42 42 42 40 40 37 35 36 35 35 40 41 40 47 42 32 33 30 33 35 34 36 36 36 28 31
54 55 55 55 56 56 55 55 56 56 56 47 38 38 40 37 41 38 38 41 39 39 41 42 38 40 39 34 34 34 36 37 39 44 37 37 33 27 31 34 34 35 36 35 32 35 34
54 54 54 54 54 55 54 54 55 55 55 46 38 37 38 37 39 38 40 40 40 41 41 39 38 41 39 37 39 37 37 36 36 35 34 35 33 30 31 33 33 33 35 34 34 34 34
54 53 54 54 54 54 54 53 54 54 54 46 43 41 39 40 37 37 39 43 42 43 45 44 42 41 37 41 41 38 39 37 37 36 34 33 32 29 29 30 32 29 31 33 34 34 35
54 54 53 53 53 53 54 54 53 54 53 50 46 44 37 33 38 40 43 43 44 43 42 42 43 41 42 42 42 39 38 36 35 33 35 32 31 30 26 29 24 35 36 37 37 37 36
53 53 53 53 52 52 53 53 53 53 54 48 48 46 41 31 38 39 41 42 40 41 42 43 43 44 44 41 38 36 33 32 31 31 31 33 31 29 27 25 32 32 35 35 36 37 37
53 53 52 52 53 52 53 53 53 54 53 49 49 51 44 39 39 43 42 43 42 37 37 40 41 42 41 38 37 33 33 34 29 28 33 33 32 30 26 24 27 34 35 38 38 33 37
52 52 51 51 52 51 52 52 52 53 53 49 46 50 46 40 44 42 39 42 43 39 36 37 38 38 39 34 33 31 32 35 32 30 28 29 29 27 26 23 31 36 38 39 31 35 37
52 52 51 51 51 51 51 51 51 52 52 48 45 50 46 43 45 46 49 45 41 41 38 37 39 36 34 34 34 33 30 33 31 33 31 32 27 26 28 26 26 37 37 36 39 35 39
51 51 51 51 51 51 51 51 51 51 51 51 42 49 50 42 45 50 50 51 52 50 44 39 41 37 41 36 32 33 32 29 32 31 33 34 38 34 36 35 39 39 37 39 40 40 39
MSLP
1024.55 1024.42 1024.21 1023.98 1023.66 1023.41 1023.10 1022.82 1022.57 1022.16 1021.74 1021.49 1021.20 1020.96 1020.65 1020.28 1020.01 1019.73 1019.49 1019.24 1018.98 1018.79 1018.59 1018.49 1018.17 1018.01 1017.98 1018.05 1017.95 1017.56 1017.22 1017.34 1017.21 1017.23 1017.47 1017.53 1017.53 1017.81 1017.81 1017.77 1017.90 1017.81 1017.21 1016.82 1016.43 1016.16 1015.68
1024.90 1024.66 1024.37 1024.19 1023.94 1023.65 1023.28 1022.89 1022.59 1022.21 1021.80 1021.47 1021.17 1020.78 1020.58 1020.30 1019.90 1019.58 1019.26 1019.01 1018.78 1018.55 1018.35 1018.25 1018.06 1018.05 1018.11 1018.19 1017.63 1017.27 1017.36 1017.43 1017.45 1017.40 1017.63 1017.72 1017.73 1017.82 1017.81 1017.84 1017.76 1017.29 1017.14 1016.83 1016.58 1016.26 1015.83
1025.13 1024.85 1024.55 1024.36 1024.20 1023.77 1023.33 1023.01 1022.65 1022.21 1021.71 1021.36 1021.00 1020.72 1020.45 1020.16 1019.80 1019.38 1019.01 1018.77 1018.54 1018.16 1017.98 1017.93 1017.84 1018.01 1018.15 1018.12 1017.68 1017.58 1017.38 1017.62 1017.58 1017.57 1017.68 1017.69 1017.82 1018.10 1017.91 1017.83 1017.67 1017.29 1017.48 1017.02 1016.59 1016.29 1016.00
1025.33 1025.09 1024.79 1024.51 1024.26 1023.97 1023.46 1023.09 1022.72 1022.28 1021.82 1021.37 1020.94 1020.62 1020.31 1019.94 1019.63 1019.16 1018.71 1018.37 1018.17 1017.68 1017.48 1017.64 1017.63 1017.98 1017.82 1017.73 1017.82 1017.71 1017.41 1017.56 1017.66 1017.61 1017.65 1017.63 1017.74 1017.74 1017.57 1017.78 1017.69 1017.68 1017.70 1017.45 1016.47 1016.16 1015.76
1025.55 1025.21 1024.98 1024.68 1024.38 1024.06 1023.65 1023.22 1022.82 1022.35 1021.85 1021.41 1020.94 1020.48 1020.13 1019.77 1019.41 1018.99 1018.46 1017.95 1017.64 1017.32 1017.30 1017.46 1017.84 1017.98 1017.81 1017.52 1017.70 1017.71 1017.56 1017.53 1017.68 1017.65 1017.57 1017.52 1017.61 1017.86 1017.88 1017.84 1018.06 1017.97 1017.82 1017.41 1016.66 1016.01 1015.84
1025.70 1025.45 1025.17 1024.79 1024.49 1024.14 1023.72 1023.33 1022.88 1022.35 1021.84 1021.38 1020.86 1020.44 1019.91 1019.52 1019.14 1018.70 1018.06 1017.53 1017.28 1017.32 1017.58 1017.69 1017.77 1018.25 1017.78 1017.83 1017.66 1017.64 1017.67 1017.56 1017.59 1017.75 1017.77 1017.75 1017.92 1018.06 1018.13 1018.08 1018.19 1018.09 1018.05 1017.65 1017.01 1016.25 1015.85
1025.94 1025.58 1025.26 1024.88 1024.58 1024.16 1023.80 1023.37 1022.92 1022.37 1021.85 1021.39 1020.84 1020.32 1019.83 1019.31 1018.84 1018.47 1018.02 1017.45 1018.09 1018.01 1017.89 1017.74 1017.78 1017.60 1017.48 1017.71 1017.72 1017.75 1017.76 1017.77 1017.57 1017.85 1018.05 1018.09 1018.44 1018.48 1018.34 1018.28 1018.12 1018.16 1018.12 1017.58 1016.66 1016.09 1015.87
1026.14 1025.67 1025.38 1025.07 1024.59 1024.19 1023.82 1023.38 1022.94 1022.44 1021.90 1021.45 1020.87 1020.29 1019.66 1019.16 1018.73 1018.39 1018.55 1018.66 1019.09 1019.52 1018.57 1017.74 1017.60 1017.43 1017.18 1017.24 1017.54 1017.65 1017.77 1017.95 1017.96 1018.18 1018.53 1018.70 1018.48 1018.07 1018.05 1018.05 1018.09 1018.03 1018.15 1017.40 1016.47 1015.98 1015.79
1026.18 1025.86 1025.43 1025.17 1024.85 1024.34 1023.91 1023.46 1022.92 1022.46 1021.95 1021.41 1020.88 1020.29 1019.59 1019.02 1018.53 1018.66 1019.30 1019.63 1019.44 1019.35 1019.26 1018.02 1017.26 1017.02 1017.00 1017.33 1017.23 1017.25 1017.79 1017.81 1018.04 1018.37 1018.56 1018.47 1018.18 1017.79 1017.88 1017.67 1017.73 1017.73 1017.68 1017.12 1016.60 1016.30 1016.17
1026.16 1025.83 1025.46 1025.15 1024.82 1024.48 1024.00 1023.53 1023.04 1022.45 1021.86 1021.29 1020.75 1020.26 1019.60 1018.90 1018.88 1019.46 1019.68 1019.71 1019.58 1019.62 1019.79 1018.43 1017.21 1016.66 1016.83 1016.94 1017.02 1016.72 1017.23 1017.58 1017.81 1017.95 1018.41 1018.37 1017.96 1017.91 1017.78 1017.58 1017.55 1017.33 1016.93 1016.83 1016.65 1016.59 1016.91
1026.09 1025.82 1025.44 1025.08 1024.76 1024.43 1024.07 1023.56 1023.02 1022.46 1021.80 1021.21 1020.63 1020.11 1019.66 1019.16 1019.31 1019.56 1020.05 1019.63 1019.52 1019.78 1020.10 1018.64 1017.16 1016.16 1016.43 1016.99 1017.03 1016.83 1017.10 1017.37 1017.43 1017.54 1018.10 1018.03 1017.78 1017.89 1017.85 1017.49 1017.17 1016.88 1016.63 1016.73 1016.71 1017.11 1017.43
1025.90 1025.76 1025.45 1025.16 1024.71 1024.42 1023.95 1023.62 1023.10 1022.42 1021.78 1021.13 1020.53 1019.97 1019.67 1019.65 1019.72 1019.90 1019.63 1019.57 1019.70 1020.54 1019.97 1018.64 1017.57 1017.14 1016.88 1016.95 1017.08 1017.07 1017.07 1017.15 1017.25 1017.49 1017.69 1017.76 1017.50 1017.44 1017.21 1017.14 1016.91 1016.73 1016.66 1016.94 1017.25 1017.65 1018.26
1025.76 1025.65 1025.16 1024.97 1024.60 1024.28 1023.86 1023.45 1023.06 1022.44 1021.78 1021.09 1020.41 1019.91 1019.68 1019.82 1019.98 1019.80 1019.76 1019.97 1020.78 1020.61 1020.15 1019.16 1018.51 1018.01 1017.98 1017.63 1017.48 1017.61 1017.78 1017.92 1018.03 1018.15 1018.26 1018.03 1017.71 1017.43 1017.21 1017.06 1016.81 1016.95 1016.96 1017.74 1018.34 1018.69 1018.96
1025.53 1025.49 1025.16 1024.71 1024.53 1024.20 1023.80 1023.37 1022.91 1022.41 1021.76 1021.03 1020.29 1019.88 1019.86 1019.87 1019.89 1019.74 1020.00 1020.46 1020.95 1020.52 1019.98 1019.38 1018.95 1018.51 1018.40 1018.23 1017.95 1018.05 1018.25 1018.62 1018.54 1018.60 1018.77 1018.67 1018.06 1017.54 1017.18 1017.01 1016.85 1016.87 1017.03 1017.94 1018.57 1019.32 1019.14
1025.13 1025.15 1025.03 1024.58 1024.34 1024.07 1023.73 1023.33 1022.91 1022.33 1021.70 1020.95 1020.11 1019.98 1020.12 1020.09 1019.93 1019.80 1020.29 1021.09 1020.68 1020.26 1019.83 1019.64 1019.15 1018.87 1018.59 1018.45 1018.59 1018.36 1018.66 1018.80 1018.77 1018.76 1018.85 1018.46 1017.82 1017.17 1017.06 1017.00 1017.16 1016.96 1017.29 1017.71 1018.51 1019.68 1019.58
1024.94 1024.73 1024.67 1024.40 1024.08 1023.91 1023.63 1023.30 1022.86 1022.35 1021.70 1020.92 1020.99 1020.64 1020.21 1020.03 1020.06 1020.14 1020.51 1020.97 1020.41 1019.94 1019.64 1019.61 1019.65 1019.36 1019.08 1018.81 1018.85 1018.76 1018.76 1018.60 1018.66 1018.55 1018.65 1018.54 1018.11 1017.28 1017.05 1017.01 1017.25 1017.15 1017.41 1017.89 1018.39 1019.46 1019.59
1025.17 1024.81 1024.51 1024.11 1023.82 1023.66 1023.48 1023.21 1022.91 1022.30 1021.67 1020.98 1021.01 1021.03 1020.48 1020.16 1020.01 1020.46 1020.85 1020.53 1020.17 1019.68 1019.54 1019.54 1019.60 1019.49 1019.38 1019.21 1019.09 1019.02 1018.87 1018.65 1018.61 1018.45 1018.51 1018.48 1018.63 1017.94 1017.36 1017.05 1017.16 1017.48 1017.61 1018.10 1018.51 1018.84 1019.12
1025.23 1024.98 1024.61 1024.22 1023.79 1023.37 1023.22 1023.02 1022.84 1022.58 1021.79 1021.42 1022.12 1021.75 1020.64 1020.42 1020.77 1020.95 1020.71 1019.71 1019.32 1019.50 1019.54 1019.49 1019.31 1019.39 1019.27 1019.30 1019.20 1019.09 1018.82 1018.55 1018.50 1018.56 1018.59 1018.64 1018.56 1018.20 1017.77 1017.43 1017.38 1017.28 1017.23 1017.65 1018.60 1019.11 1019.24
1025.24 1024.97 1024.74 1024.28 1023.87 1023.44 1023.03 1022.78 1022.74 1022.58 1022.51 1022.59 1022.85 1022.08 1020.78 1020.55 1020.74 1020.61 1019.98 1019.56 1019.05 1018.98 1019.38 1019.50 1019.35 1019.03 1019.07 1019.17 1019.35 1018.88 1018.65 1018.37 1018.53 1018.71 1018.75 1018.69 1018.84 1018.59 1018.09 1018.00 1017.53 1017.60 1017.62 1017.76 1017.99 1018.53 1018.93
1025.24 1024.87 1024.64 1024.36 1023.97 1023.55 1023.12 1022.72 1022.48 1022.52 1022.58 1022.77 1022.88 1022.49 1021.20 1020.94 1020.74 1020.24 1019.78 1019.14 1018.97 1018.60 1018.55 1018.86 1019.06 1019.05 1018.95 1018.98 1018.93 1018.97 1018.66 1018.44 1018.63 1018.81 1018.87 1018.99 1019.18 1018.81 1018.46 1018.00 1017.91 1017.78 1017.67 1017.91 1018.27 1018.68 1018.42
1025.20 1024.79 1024.46 1024.20 1023.82 1023.57 1023.24 1022.85 1022.47 1022.22 1022.39 1022.78 1023.09 1021.94 1021.50 1021.15 1020.48 1020.22 1019.73 1019.05 1018.70 1018.60 1018.51 1018.41 1018.66 1018.83 1018.80 1018.91 1018.78 1018.82 1018.57 1018.60 1018.72 1018.89 1019.19 1019.46 1019.59 1019.33 1018.72 1018.35 1018.09 1017.80 1017.74 1017.97 1018.28 1018.16 1018.32
1024.98 1024.71 1024.33 1024.06 1023.79 1023.34 1023.17 1023.01 1022.50 1022.03 1022.00 1022.44 1022.68 1022.48 1021.66 1020.85 1020.24 1020.01 1019.66 1018.79 1018.34 1017.92 1018.23 1018.25 1018.16 1017.74 1018.43 1018.55 1017.98 1018.20 1018.40 1018.79 1018.76 1019.24 1019.53 1019.85 1019.97 1019.86 1019.12 1018.53 1018.28 1018.09 1017.68 1017.86 1018.06 1018.10 1018.15
1024.59 1024.42 1024.08 1023.70 1023.32 1023.05 1022.84 1022.83 1022.43 1022.15 1021.66 1021.46 1021.54 1021.80 1021.69 1020.43 1020.03 1019.53 1018.68 1017.82 1017.45 1017.63 1016.92 1017.10 1017.41 1017.68 1018.00 1017.59 1017.74 1018.03 1018.30 1018.63 1018.77 1019.34 1019.92 1020.28 1020.12 1020.22 1019.49 1018.91 1018.57 1018.21 1017.03 1017.33 1017.55 1017.61 1017.83
1024.10 1023.70 1023.48 1023.32 1023.08 1022.66 1022.40 1022.29 1022.20 1021.93 1021.77 1020.74 1020.62 1020.92 1021.33 1020.21 1019.37 1018.40 1017.39 1017.10 1016.92 1017.10 1017.32 1017.20 1017.44 1017.65 1017.47 1017.38 1017.77 1018.34 1018.66 1019.01 1019.26 1019.66 1019.93 1020.31 1020.52 1020.28 1019.72 1019.01 1018.24 1016.53 1016.27 1016.52 1016.98 1017.09 1017.47
1023.53 1023.19 1022.84 1022.53 1022.41 1022.30 1021.99 1021.72 1021.64 1021.48 1021.21 1021.04 1019.98 1019.98 1020.05 1019.10 1018.58 1017.61 1017.18 1016.80 1016.46 1016.53 1016.98 1017.17 1017.32 1017.30 1017.37 1017.70 1018.15 1018.40 1018.78 1019.12 1019.58 1019.99 1020.19 1020.29 1020.41 1020.38 1020.02 1019.20 1017.28 1016.36 1016.35 1016.55 1016.70 1016.74 1017.11
1022.94 1022.53 1022.24 1021.84 1021.55 1021.40 1021.21 1021.03 1020.85 1020.70 1020.62 1020.64 1019.81 1018.78 1018.61 1018.19 1016.03 1016.95 1016.51 1015.99 1016.13 1016.41 1016.92 1016.99 1017.52 1017.66 1017.64 1018.12 1018.42 1018.53 1018.40 1018.35 1019.31 1019.99 1020.32 1020.52 1020.38 1020.44 1020.33 1019.25 1017.53 1015.82 1015.65 1015.77 1016.08 1016.66 1016.97
1022.08 1021.70 1021.51 1021.21 1020.83 1020.52 1020.27 1020.13 1020.05 1019.88 1019.88 1020.01 1019.24 1018.70 1017.39 1016.39 1015.17 1015.46 1015.37 1015.05 1015.06 1015.55 1016.00 1016.66 1017.31 1017.92 1017.91 1018.30 1018.55 1018.48 1018.16 1017.84 1018.44 1019.02 1019.87 1020.30 1020.52 1020.35 1019.92 1019.05 1017.12 1015.83 1015.73 1015.87 1016.66 1017.23 1017.01
1021.17 1020.65 1020.29 1020.00 1019.72 1019.45 1019.22 1018.96 1018.87 1018.86 1018.90 1019.18 1018.18 1018.22 1017.81 1015.25 1014.19 1013.85 1013.84 1014.00 1014.26 1014.13 1014.90 1016.02 1016.88 1017.58 1018.06 1018.19 1018.05 1017.74 1017.76 1017.26 1017.51 1017.65 1018.07 1018.33 1019.11 1019.51 1019.38 1018.79 1017.51 1016.20 1016.44 1016.55 1016.53 1016.76 1017.14
1020.03 1019.54 1019.12 1018.73 1018.42 1018.16 1017.92 1017.64 1017.49 1017.60 1017.79 1017.95 1017.21 1017.62 1017.51 1016.43 1013.10 1012.16 1011.80 1011.64 1012.16 1012.91 1013.21 1014.49 1014.30 1014.53 1015.00 1016.16 1016.64 1016.83 1016.96 1017.18 1017.15 1017.47 1017.39 1017.36 1016.64 1017.13 1017.37 1016.48 1016.09 1016.41 1016.55 1016.48 1016.50 1016.77 1017.45
Wind_Speed
14 15 15 15 16 16 16 17 17 17 16 15 13 13 12 13 13 13 13 12 12 12 11 9 9 8 1 3 3 2 8 6 3 2 2 1 1 2 4 5 5 3 4 5 3 4 4
14 15 15 16 16 16 17 17 17 17 17 16 14 13 13 13 13 14 14 14 13 12 10 9 8 7 0 3 1 2 5 2 3 2 2 1 2 2 2 3 4 8 4 4 2 2 5
14 14 16 16 17 17 18 18 18 18 18 17 15 14 13 14 15 14 15 16 15 14 11 8 6 0 1 3 3 3 2 2 2 1 2 2 4 3 4 3 1 1 4 2 4 5 4
14 14 15 16 17 18 18 18 19 19 19 18 16 15 13 15 15 15 16 17 15 14 9 6 4 2 4 3 5 3 3 2 1 2 1 2 2 4 1 1 1 3 4 4 3 8 4
14 14 15 16 17 18 19 19 19 20 20 20 18 16 15 14 15 15 17 17 12 6 3 6 3 2 5 2 2 1 2 1 2 1 2 1 1 1 1 2 2 1 3 5 4 8 4
14 14 15 16 17 18 19 19 19 19 20 21 20 17 16 15 14 15 17 13 3 3 4 2 2 3 1 3 2 1 0 1 1 2 2 4 4 3 3 2 4 1 0 2 4 4 6
14 14 16 16 17 19 20 20 20 20 20 20 22 18 16 15 14 14 9 3 6 4 3 3 4 4 3 1 1 1 1 2 3 5 3 2 2 2 4 3 4 8 4 4 5 4 5
14 14 16 17 17 18 19 20 21 21 21 21 23 19 17 15 14 11 2 4 2 2 6 1 3 4 3 5 2 2 2 3 1 5 1 4 4 3 4 4 2 4 7 6 3 2 3
14 15 16 17 19 19 20 20 20 21 22 22 23 20 17 16 10 5 3 2 3 3 1 5 4 3 3 5 3 3 7 3 3 2 2 3 4 4 3 1 3 4 7 4 4 2 4
14 15 16 16 18 20 20 20 21 22 21 21 22 21 17 18 5 2 3 4 4 2 6 6 2 2 2 2 3 2 7 3 2 4 7 4 4 2 3 2 3 3 6 3 0 2 4
13 14 15 16 17 18 20 21 21 21 21 21 21 21 14 8 2 3 3 3 2 4 6 5 7 1 4 2 3 1 2 2 3 2 4 3 4 5 3 1 4 4 2 4 3 4 4
12 14 15 17 17 17 17 20 21 20 21 22 22 20 12 2 2 1 0 2 4 9 5 5 4 5 4 4 4 5 1 3 1 1 1 1 2 0 3 5 4 3 3 2 4 3 3
11 11 13 12 13 14 15 17 20 21 21 22 23 16 4 0 1 0 1 4 8 6 2 5 3 4 2 4 4 6 4 6 3 4 5 4 1 2 1 1 1 1 4 4 5 5 3
11 12 11 12 14 15 15 16 19 20 21 22 24 7 4 1 2 1 3 7 6 4 4 3 2 3 2 4 1 6 2 4 2 2 3 3 6 2 2 1 3 2 4 6 3 4 3
12 12 13 12 13 14 15 16 18 19 20 23 16 2 2 3 3 1 6 5 6 5 1 3 5 2 3 2 3 2 2 1 2 2 1 2 3 2 3 2 2 3 0 3 7 2 3
14 13 13 13 13 13 14 15 17 19 20 22 3 4 1 3 3 4 6 5 3 3 2 1 2 0 2 4 3 3 1 2 2 2 3 1 2 2 2 3 3 1 4 2 3 4 3
17 17 19 15 13 12 12 14 16 17 20 15 3 4 2 3 3 5 3 6 4 5 3 4 2 3 4 2 1 2 2 1 3 2 3 1 3 2 1 2 6 1 2 5 3 3 4
18 18 19 17 19 13 11 12 12 15 16 9 3 4 2 2 4 1 3 6 4 3 2 3 3 4 3 1 2 3 3 4 4 1 3 2 3 2 1 2 1 2 4 4 5 2 1
19 18 20 20 12 17 14 11 9 9 8 2 3 4 2 2 2 2 3 4 5 6 4 4 5 6 3 2 3 3 3 0 3 3 1 3 0 2 5 4 1 2 1 2 4 3 4
21 19 18 19 18 17 17 15 8 5 2 3 1 4 4 3 1 2 3 4 4 4 3 5 3 2 3 3 4 4 3 1 2 0 2 2 1 4 6 4 1 3 3 2 2 2 3
21 22 21 21 19 19 18 16 16 4 3 3 1 5 4 4 3 3 1 2 3 4 4 6 2 7 7 5 3 5 3 2 1 1 2 2 2 2 5 4 2 3 4 5 6 4 4
21 21 21 21 22 18 18 18 15 10 8 2 2 2 1 3 2 5 4 5 6 3 7 6 6 5 7 7 8 7 6 4 4 0 2 1 1 0 3 2 3 5 7 5 3 2 4
22 21 22 23 22 20 17 18 18 16 9 3 2 2 3 4 2 5 7 8 6 4 6 3 7 5 6 11 5 1 3 4 3 6 4 2 4 2 4 2 3 7 9 9 4 4 7
24 24 21 22 23 23 20 17 18 18 12 3 3 3 3 6 6 8 5 8 8 8 4 1 5 5 2 6 7 5 6 4 3 3 1 5 3 2 4 2 2 3 1 5 5 5 7
24 25 25 24 22 23 23 21 20 22 21 9 2 4 4 5 6 7 8 5 2 3 6 5 5 2 6 3 3 2 2 0 1 3 0 0 3 1 1 2 7 3 5 7 8 6 8
25 25 27 27 26 24 23 22 22 20 21 11 8 6 4 5 14 8 5 11 10 5 1 4 2 1 3 2 3 5 5 5 3 2 2 3 4 3 2 2 5 3 2 3 2 5 8
27 26 27 27 27 28 26 25 25 22 20 10 8 11 7 9 8 7 6 10 7 4 3 5 6 3 2 3 3 5 5 3 5 7 6 3 2 4 3 3 9 4 3 2 4 4 5
28 29 29 29 28 27 29 28 26 25 22 13 9 6 11 8 11 12 21 15 1 4 7 5 5 0 2 5 5 5 5 7 3 4 7 8 8 4 3 2 8 2 2 5 3 2 4
30 31 31 30 30 30 30 29 27 27 24 20 13 9 9 13 8 10 17 17 16 10 6 6 2 6 7 4 3 3 3 3 4 4 1 4 6 6 8 7 4 4 2 1 2 5 3
Wind_Direction
29 25 22 20 17 14 12 8 3 355 351 343 336 333 332 329 327 326 322 321 316 311 308 309 307 333 10 12 289 285 334 351 37 53 54 118 98 143 208 174 141 269 207 210 254 351 315
24 22 18 13 11 10 9 7 2 357 353 346 339 334 328 322 320 318 315 314 313 310 303 305 299 321 5 16 122 306 334 16 37 62 104 75 88 37 297 183 183 194 178 238 169 293 304
18 19 14 11 8 3 5 4 1 358 357 352 342 336 326 319 315 311 308 307 308 305 297 281 277 332 21 250 111 306 356 8 346 41 148 145 138 92 214 156 275 64 176 313 209 185 263
16 15 12 8 3 0 359 0 359 357 355 354 345 337 331 323 314 310 307 304 306 300 287 245 200 122 242 115 126 18 328 148 56 3 83 171 214 246 69 110 83 95 118 175 251 154 245
10 6 7 5 1 360 356 357 357 355 353 351 347 339 334 327 318 313 307 303 303 289 180 150 109 150 307 144 143 226 329 89 119 35 334 260 135 122 125 114 104 299 176 201 301 200 148
7 5 2 359 359 358 355 354 353 353 351 350 349 340 335 329 323 318 311 301 259 120 76 110 78 62 344 310 177 234 171 332 56 91 64 39 34 41 30 131 199 208 74 213 223 218 176
4 5 1 359 357 357 354 352 351 350 350 348 347 341 334 330 327 327 337 30 14 342 47 214 264 207 281 357 141 285 5 269 52 29 42 17 37 196 236 235 340 139 252 248 211 236 129
2 5 3 359 358 356 355 353 351 349 348 346 347 342 333 330 328 333 9 66 85 212 315 306 244 267 235 176 262 238 132 81 151 137 58 14 268 261 288 208 226 151 269 279 251 169 115
359 359 1 358 356 354 353 351 352 349 346 344 347 342 334 328 321 42 37 41 332 356 98 304 244 242 224 146 269 252 159 165 142 96 207 118 299 125 322 197 177 187 205 233 186 145 60
352 355 356 356 355 353 352 349 348 348 344 343 345 342 332 325 65 298 46 340 348 19 67 289 329 283 128 195 255 153 194 173 204 226 172 225 192 130 41 22 138 250 201 246 109 77 153
348 350 351 348 352 351 348 346 346 345 344 342 343 342 333 4 185 77 283 326 2 52 41 270 295 306 301 187 323 293 156 102 243 190 102 245 176 172 149 216 233 233 154 197 127 112 85
351 343 350 346 345 345 346 343 341 342 342 341 342 341 334 0 47 307 254 27 52 43 271 339 292 347 9 16 345 321 211 58 284 111 136 151 352 202 203 192 225 343 90 78 56 92 56
325 329 349 340 335 337 342 345 341 341 341 339 339 337 342 358 202 284 352 51 41 107 311 301 321 8 305 308 341 33 33 7 63 60 9 2 24 314 322 211 191 214 62 20 20 21 203
305 310 312 320 328 333 337 343 341 340 339 337 334 342 346 27 302 111 51 52 72 236 247 328 324 302 319 339 16 4 67 11 18 43 97 91 340 357 343 204 197 194 162 141 202 187 217
294 297 299 306 314 322 332 337 337 339 338 336 333 356 24 325 308 61 74 51 212 198 280 326 313 308 312 325 297 58 24 246 237 26 121 110 237 248 212 157 143 187 289 147 102 22 68
333 297 294 300 305 310 320 330 335 339 338 340 355 337 273 317 351 55 80 241 224 210 155 76 297 260 288 301 333 25 260 205 263 206 136 272 334 208 149 127 22 205 162 77 8 132 230
360 352 358 314 300 302 308 321 330 341 339 340 34 1 311 353 78 47 160 213 254 229 179 157 255 283 258 285 249 280 279 207 214 251 170 133 122 270 209 135 184 117 7 46 112 129 175
357 347 350 336 348 295 294 307 327 342 343 41 0 342 319 1 39 53 200 193 178 211 171 217 175 214 220 265 266 262 259 232 185 243 188 192 154 257 125 294 337 307 173 151 120 224 230
339 339 338 340 340 1 299 290 314 342 29 360 355 270 336 69 228 244 260 266 214 162 213 190 232 194 165 228 293 209 242 277 166 180 218 185 200 19 348 351 84 256 223 109 106 97 201
335 336 335 334 336 345 358 313 280 317 57 83 68 332 318 57 324 221 215 227 253 204 190 183 233 159 147 230 200 292 277 194 166 239 116 87 144 175 189 212 180 240 187 164 121 107 182
332 330 331 328 325 327 332 337 316 235 184 91 214 227 187 276 266 234 197 191 211 238 225 180 214 218 186 201 199 221 225 287 169 132 88 109 253 136 271 253 248 255 217 180 175 199 171
330 329 327 322 321 320 326 319 327 282 174 164 250 248 346 263 227 165 192 234 215 238 164 235 205 177 195 206 194 201 168 199 213 93 134 48 259 190 283 168 203 274 251 227 225 233 271
327 325 323 324 320 314 314 319 314 323 192 204 186 241 129 250 218 143 209 217 225 175 223 199 210 144 190 230 199 121 132 95 153 167 178 170 147 113 270 277 280 288 220 186 189 196 151
326 320 315 319 317 317 312 304 308 306 291 239 183 132 140 261 207 206 211 190 210 211 275 274 152 166 194 103 100 91 74 83 118 48 144 148 136 147 252 340 300 252 126 172 198 208 200
317 319 313 309 311 311 307 300 296 293 293 293 227 174 198 237 234 246 237 217 211 195 208 206 219 205 147 99 73 38 332 265 106 38 101 74 136 142 182 217 284 132 195 168 185 243 186
308 312 312 307 305 304 296 294 292 283 284 291 279 226 196 251 231 240 235 208 225 190 172 196 44 112 78 101 130 205 216 211 215 151 69 68 69 119 128 173 229 243 208 201 211 287 173
306 307 304 300 300 298 295 290 286 276 274 277 281 271 228 243 208 162 197 222 171 167 149 136 164 159 35 143 172 188 239 164 196 182 169 124 88 187 191 255 288 243 169 172 126 248 163
302 301 303 299 296 295 297 289 282 274 266 264 270 263 266 256 238 214 218 229 174 180 157 163 100 220 103 185 175 205 193 215 158 156 176 166 151 196 118 186 275 139 81 169 217 39 134
302 299 299 295 293 295 291 285 280 274 266 259 261 260 264 276 280 223 209 191 219 213 147 192 207 162 164 143 211 128 174 145 172 218 6 204 189 178 190 212 176 187 292 343 156 132 154